Theta_e
304 304 305 305 305 306 306 306 306 306 306 308 311 312 309 308 308 312 317 318 319 317 320 321 323 322 322 323 325 326 326 329 330 330 343 342 343 344 344 345 343 341 339 339 344
304 305 305 305 306 306 306 306 306 306 306 308 310 312 310 309 317 319 320 318 316 316 319 322 323 323 323 324 326 325 327 330 332 332 334 338 342 344 347 346 345 343 344 344 345
304 305 305 305 305 306 306 306 306 306 306 308 309 313 310 310 324 322 318 318 314 318 321 321 322 323 322 325 326 326 327 331 330 331 332 336 338 343 345 345 344 344 346 346 344
304 305 305 305 305 306 306 306 306 306 307 308 310 313 310 320 326 327 322 315 316 319 323 323 324 322 323 324 325 325 327 329 330 330 331 335 338 343 344 342 341 340 347 346 344
304 305 305 305 306 306 306 306 306 307 311 310 310 312 315 324 322 324 318 316 318 323 323 324 322 323 323 324 324 324 325 326 328 327 329 332 338 341 344 342 337 340 347 348 344
304 304 305 306 306 306 306 307 307 310 314 311 311 312 320 322 320 324 329 319 320 321 323 323 323 325 325 325 324 325 324 325 326 327 329 329 332 340 342 340 339 341 343 348 345
303 304 305 306 306 306 307 306 308 314 314 310 313 314 323 323 320 323 326 320 321 322 324 322 325 326 326 325 326 325 325 325 326 327 327 328 331 335 335 339 338 339 342 346 347
302 302 303 305 306 306 306 307 313 311 310 311 313 321 324 322 321 320 325 321 323 323 321 324 324 326 326 327 326 325 325 325 326 326 326 328 329 331 333 336 337 338 341 344 347
301 302 302 303 305 306 307 309 314 312 312 313 318 323 323 320 320 320 324 323 321 322 323 324 324 325 325 326 325 325 325 325 327 327 328 327 327 330 332 336 336 336 338 342 346
301 301 302 303 304 305 307 315 318 314 316 319 320 322 320 322 320 320 323 325 321 323 325 325 325 326 326 324 324 325 324 326 328 328 329 329 328 332 333 334 334 335 336 338 344
300 300 302 303 304 305 310 319 324 327 324 324 322 319 320 322 322 321 323 325 322 324 325 325 326 326 325 325 325 326 327 326 328 329 329 330 330 330 331 331 334 336 336 337 340
299 299 301 303 304 307 313 321 315 314 320 323 324 321 319 322 323 322 324 326 324 325 325 327 326 326 325 326 325 326 326 327 327 328 328 328 328 329 329 329 330 332 335 347 346
299 299 301 303 305 313 314 315 311 314 322 322 323 324 321 320 322 323 325 326 325 325 325 327 327 325 325 326 324 324 324 324 326 327 328 327 327 329 330 331 333 341 344 346 348
299 299 299 303 310 311 315 314 311 317 324 325 323 324 324 320 319 322 323 325 326 325 325 327 327 326 325 326 325 325 325 324 325 326 329 329 328 329 331 335 339 342 344 343 343
299 299 299 303 308 313 311 310 311 320 326 325 323 323 324 322 321 321 323 325 326 325 325 326 326 326 326 325 325 326 327 326 325 327 328 328 329 329 332 335 339 342 341 339 341
299 299 299 308 309 310 309 309 316 325 326 325 323 322 324 324 321 322 323 324 325 325 325 326 326 325 326 325 325 326 328 327 327 327 329 328 330 330 331 332 340 342 339 336 335
299 299 299 304 312 309 309 313 322 323 322 324 323 323 324 325 322 323 323 325 326 326 327 326 325 325 325 324 326 327 328 331 330 329 329 330 330 329 333 332 338 342 339 337 335
299 300 306 308 309 309 310 316 322 322 323 325 324 324 325 325 324 324 324 324 325 325 326 328 327 325 325 327 328 327 328 331 334 332 329 331 330 330 334 338 340 339 338 336 336
299 308 309 310 309 308 313 316 319 321 321 321 323 325 325 325 324 324 325 324 324 325 327 327 327 326 325 326 327 329 329 329 332 332 333 332 334 335 336 339 339 339 339 338 336
303 307 310 311 309 310 313 315 316 319 320 321 324 324 325 326 324 325 326 325 325 325 326 327 328 326 325 325 326 327 329 330 330 335 335 329 329 332 336 337 339 339 339 338 336
306 312 312 311 312 313 313 314 315 317 320 319 322 321 324 327 327 325 325 326 326 326 326 326 329 328 325 325 325 327 328 331 331 332 333 335 333 335 335 334 336 337 338 338 335
308 312 312 311 316 315 314 314 314 316 318 319 318 322 323 325 329 326 325 325 325 325 326 326 330 332 328 326 325 327 327 330 332 333 332 334 332 331 332 334 335 335 338 336 335
310 312 311 311 316 317 317 315 314 315 316 318 318 317 320 323 327 328 326 325 325 325 327 327 329 332 332 328 327 328 329 329 331 334 335 338 337 334 332 333 334 334 337 336 335
309 311 312 314 314 317 320 319 316 314 317 317 318 318 317 319 324 328 328 326 325 324 329 332 329 332 332 331 330 330 327 328 330 334 334 331 331 336 335 334 334 334 337 336 335
308 309 311 316 317 315 317 322 319 316 316 317 318 316 317 319 323 324 328 329 326 327 327 331 332 331 330 330 329 329 330 328 330 331 333 332 333 336 335 335 335 336 336 336 335
308 309 311 312 313 318 315 318 320 318 317 317 317 317 318 319 320 325 326 330 330 328 328 329 334 331 330 329 328 328 329 330 330 329 330 331 332 333 336 334 332 333 337 337 335
305 306 307 308 311 313 318 318 320 320 318 317 319 320 320 318 318 323 329 332 330 331 333 331 332 333 332 329 329 330 328 329 330 329 329 331 332 334 334 332 332 333 335 337 335
Wind_Speed
18 19 19 19 18 18 18 17 16 16 15 11 9 9 9 10 11 11 14 9 15 12 11 13 16 15 15 15 14 12 12 16 11 5 19 11 10 7 3 13 7 2 7 17 19
19 19 20 20 18 19 18 18 17 17 16 12 9 8 8 10 13 20 20 14 11 14 14 16 15 16 13 15 11 13 13 21 11 7 4 11 10 10 7 8 8 9 9 18 18
20 20 20 21 22 20 20 19 18 18 16 12 9 8 7 8 14 14 13 19 16 19 17 15 14 14 17 15 15 15 18 8 7 7 8 8 12 13 13 15 15 15 13 16 18
21 21 21 22 23 22 22 21 20 19 15 11 8 7 6 6 3 7 6 14 16 19 16 13 13 15 17 17 15 17 16 10 2 6 6 6 9 13 13 12 12 10 18 16 15
21 22 22 22 23 23 23 23 22 18 14 9 7 6 4 9 14 7 5 15 17 16 18 14 14 15 16 13 15 13 20 12 11 8 8 6 9 10 14 6 2 9 17 16 15
22 22 23 23 24 24 23 24 21 17 11 7 7 6 9 15 3 4 8 18 19 18 16 14 12 12 11 12 11 12 18 11 14 14 12 11 13 12 13 13 13 7 12 15 16
25 25 24 24 25 26 25 23 19 14 8 6 7 7 12 13 1 5 12 19 17 17 14 16 10 6 12 9 10 7 12 13 16 15 11 11 15 16 16 14 13 12 11 11 14
26 26 27 26 26 26 26 20 14 8 3 4 6 7 8 0 9 9 14 17 15 14 13 10 9 13 9 6 6 15 15 17 20 14 10 12 18 17 15 10 15 15 13 13 13
25 27 27 27 26 26 22 17 6 3 2 5 6 10 13 7 12 16 16 16 13 12 8 3 12 15 13 12 13 12 14 15 13 14 14 15 20 18 18 15 13 13 13 13 12
25 27 28 28 26 26 18 9 5 2 3 5 12 7 12 13 14 17 18 17 16 15 12 13 9 12 13 14 13 15 14 16 9 11 13 16 20 5 8 8 12 14 14 14 16
27 27 28 27 27 18 17 6 6 7 16 13 6 13 3 6 6 15 19 17 17 16 16 16 13 15 18 16 18 10 12 16 7 9 12 16 17 15 9 13 14 15 16 16 15
27 28 28 26 24 9 10 5 7 7 10 18 21 16 5 5 11 15 21 19 16 19 19 14 17 17 15 5 7 11 14 13 8 9 9 15 16 12 13 4 10 9 10 14 11
27 28 28 27 11 5 7 5 7 10 8 13 21 22 19 15 14 18 22 22 19 21 20 20 11 20 7 10 13 15 15 14 14 12 12 18 18 14 8 8 5 3 6 10 11
28 28 27 29 5 15 3 4 10 6 6 12 10 9 22 16 15 19 26 22 14 21 22 19 18 9 11 15 14 15 15 16 14 13 11 20 14 22 15 10 7 5 6 5 4
28 27 26 13 14 8 7 10 10 4 6 9 11 7 13 21 7 24 26 24 22 19 15 18 17 15 15 16 14 14 8 12 15 14 15 13 8 4 13 15 12 7 8 7 5
28 26 27 7 13 13 11 11 7 7 11 9 8 11 16 23 16 20 21 25 18 18 18 20 13 13 16 15 13 9 7 12 14 14 14 19 12 12 15 13 13 11 10 8 10
30 25 22 14 5 4 12 8 7 10 6 10 9 15 18 19 21 18 24 26 21 19 19 17 20 13 14 16 12 11 12 8 9 11 13 16 15 4 9 6 11 15 11 9 11
32 23 16 14 8 6 9 8 13 9 22 4 4 13 18 17 23 21 22 22 26 23 15 15 17 21 14 19 16 17 16 11 9 11 14 11 10 7 13 12 11 11 11 10 11
29 16 15 13 11 11 7 13 10 16 8 5 10 12 16 17 14 21 25 24 25 25 21 17 18 16 21 18 18 18 16 17 15 16 9 12 9 10 14 13 11 12 11 11 11
19 17 20 11 9 12 9 22 19 21 4 5 16 14 17 21 18 22 23 23 24 26 21 14 9 15 17 17 20 22 9 12 8 12 13 14 13 7 17 16 14 13 12 12 11
10 5 8 8 10 8 15 20 22 26 12 10 13 19 12 16 21 21 24 16 24 24 23 19 10 13 12 16 20 14 15 13 13 10 10 11 0 13 11 14 15 14 14 13 13
8 6 8 10 9 10 17 23 21 20 18 15 11 19 14 16 17 20 20 20 10 22 24 20 9 12 17 17 18 21 20 18 11 14 9 10 12 3 3 11 12 13 13 13 12
5 9 7 10 9 14 18 24 26 23 22 21 16 17 17 17 14 16 20 18 15 21 20 19 11 12 14 9 7 11 14 15 17 14 16 11 9 6 8 10 10 11 13 12 12
5 5 8 8 13 20 19 23 22 25 19 22 18 22 18 17 17 13 18 10 12 16 3 15 13 17 15 17 17 18 18 16 13 10 13 15 12 14 13 12 11 7 14 12 11
5 6 5 6 10 18 20 23 24 22 18 21 19 20 20 18 19 20 18 13 11 6 12 14 19 17 20 21 15 13 19 19 17 17 16 6 1 3 5 8 8 11 9 12 11
5 5 6 12 17 19 17 22 24 21 22 18 20 21 21 20 20 17 18 15 16 15 16 16 14 19 21 19 19 14 14 19 19 17 16 10 6 9 13 3 1 5 13 11 11
3 6 6 8 14 15 16 20 23 20 18 19 19 18 20 24 22 22 7 11 14 18 18 17 15 16 19 19 13 19 18 15 14 15 14 10 2 8 7 3 1 4 3 9 10
Wind_Direction
9 9 5 3 358 357 352 346 341 339 334 316 300 287 279 277 274 258 246 239 217 238 195 207 212 227 235 248 242 254 268 258 221 248 165 141 181 170 121 123 167 128 71 115 135
5 2 0 359 355 351 348 342 336 333 329 315 297 286 279 280 271 257 243 244 228 202 202 199 209 220 228 230 222 237 239 261 46 43 348 155 210 176 173 170 168 137 110 128 148
1 359 357 354 352 346 341 338 331 328 322 310 291 281 276 290 270 237 192 224 211 194 217 216 234 217 235 228 220 225 257 306 92 37 312 199 219 165 212 189 170 168 146 150 165
358 355 353 350 348 343 338 334 327 323 316 302 280 272 270 261 274 103 164 192 196 193 220 226 234 222 240 231 237 237 246 293 145 132 249 244 212 172 210 251 142 156 141 163 176
353 351 349 347 344 340 335 331 325 318 308 286 261 249 257 229 253 144 193 181 177 192 220 214 223 224 233 235 230 230 261 227 254 226 246 269 224 213 208 244 113 150 143 174 185
351 348 345 344 341 338 334 330 323 314 299 264 241 223 241 251 75 158 173 174 187 209 219 223 227 233 278 251 228 220 240 246 247 225 219 235 239 227 230 205 161 199 177 180 189
349 346 344 342 339 336 333 327 322 313 290 238 218 212 266 252 211 176 176 182 197 208 222 227 255 227 239 232 246 269 259 238 243 228 234 236 229 211 237 194 217 192 188 192 194
346 345 343 340 338 334 331 324 318 315 274 212 197 231 265 132 209 200 182 188 202 214 236 209 231 252 253 256 246 240 236 241 208 210 204 219 227 208 216 208 210 196 201 200 206
344 342 341 339 337 333 329 321 314 313 173 174 203 228 256 156 212 204 194 193 193 205 226 237 244 233 212 242 231 207 239 230 164 187 196 214 246 222 179 208 213 219 210 190 214
342 340 339 339 336 332 327 311 261 185 175 223 261 245 243 224 190 201 197 200 187 190 197 211 222 227 234 219 232 216 220 220 197 172 233 203 248 218 180 227 226 243 230 206 187
341 338 337 338 336 333 332 272 213 198 218 238 221 233 156 148 162 204 192 200 191 195 210 203 221 221 230 227 260 325 287 248 199 160 216 234 214 246 212 197 236 227 233 218 208
341 338 336 337 334 344 313 303 33 336 290 250 247 235 221 202 195 203 185 196 200 206 212 205 228 245 236 300 272 255 261 265 250 168 198 253 246 251 257 195 263 291 307 7 329
343 340 337 338 334 336 316 37 336 326 261 268 223 220 213 204 222 196 192 203 201 211 212 229 237 214 222 217 238 240 243 242 252 209 207 256 259 242 158 248 229 53 360 21 10
341 341 341 339 296 331 274 323 329 320 272 203 200 228 206 198 227 219 200 210 212 220 223 223 246 194 233 234 224 245 224 254 251 250 234 205 251 225 166 180 191 140 87 53 2
337 337 336 350 304 303 1 319 321 256 271 116 140 114 189 193 189 201 193 214 225 215 223 223 229 196 228 224 228 250 332 211 243 245 253 218 247 246 153 179 147 105 86 84 62
332 331 331 347 282 270 302 308 274 234 241 162 163 193 193 205 230 171 198 214 225 233 229 239 202 238 223 232 236 237 227 242 243 240 236 243 253 234 189 186 122 117 113 112 113
327 322 310 280 262 316 313 266 231 239 110 184 187 189 199 193 210 177 192 201 208 218 219 215 243 208 237 221 185 220 217 214 214 228 239 222 220 240 93 85 112 133 128 130 128
324 316 290 240 266 278 262 227 239 259 233 71 266 193 208 192 212 190 201 206 214 215 224 211 214 213 202 228 192 214 221 243 216 213 230 145 208 207 117 112 119 124 124 136 130
329 311 267 253 236 222 235 222 228 240 292 266 231 233 211 213 206 209 212 214 206 220 223 213 233 212 200 213 241 207 215 245 284 282 282 185 119 136 148 138 151 151 149 139 135
320 301 265 194 190 204 222 238 236 256 342 253 247 216 223 205 206 210 209 212 220 207 220 243 245 194 205 210 222 247 203 231 232 258 253 248 245 205 170 169 176 174 170 152 148
291 268 125 167 179 215 230 226 233 256 211 246 261 256 250 261 204 232 216 212 209 209 215 228 224 206 205 203 221 204 233 236 251 239 232 250 276 79 168 179 181 187 171 160 162
282 252 122 180 216 228 235 231 251 238 218 227 265 276 256 254 260 217 219 225 197 222 202 213 210 245 204 216 227 211 214 230 233 233 256 280 282 89 146 161 174 187 162 155 160
262 272 156 200 243 237 243 239 241 233 235 231 231 244 247 249 256 259 243 220 177 215 207 202 210 225 227 181 216 238 240 222 233 238 267 262 238 141 161 151 173 182 152 151 161
276 262 195 208 254 271 282 235 240 232 233 233 235 235 245 242 247 256 234 179 190 213 143 211 208 223 225 205 197 206 237 232 233 229 237 240 243 167 177 175 170 197 150 166 176
238 252 321 272 234 237 251 270 227 227 213 239 231 236 229 237 236 225 253 174 201 165 184 206 219 224 238 262 259 220 202 226 223 227 249 256 131 239 261 188 191 182 178 170 182
299 316 332 279 284 293 234 246 259 230 222 213 233 230 236 240 238 233 214 232 197 198 218 202 217 230 237 233 243 254 214 217 217 228 236 253 258 93 123 88 301 248 178 182 188
301 287 264 284 274 251 254 236 247 248 237 227 214 229 235 225 239 252 307 299 212 195 212 195 215 220 232 235 213 243 240 226 215 221 243 242 304 86 143 151 201 265 218 182 187